Dewpoint
44 44 44 44 43 42 42 42 41 40 39 40 40 41 42 43 43 43 43 42 41 41 41 42 43 44 44 44 44 45 45 45 45 45 45 45 45 45 46 46 46 46 46 46 46 46 46 46 46 46 46 46 46 46 46 46 46 46 46 46 46 46 46 46 46 46 46 46 46 46 46 45 45 45 45 45 45 45 46 46 47 47 48 48 48 48
44 44 44 44 43 42 41 41 40 39 38 38 38 39 40 41 41 41 40 40 40 40 40 41 42 43 43 44 44 43 43 43 44 44 44 44 44 44 44 44 44 44 45 45 45 45 45 45 45 45 45 45 45 45 45 45 45 45 45 45 45 45 45 45 45 45 45 45 45 45 45 45 44 44 45 45 44 44 44 45 45 46 47 47 48 48
43 43 43 43 42 40 39 39 39 39 38 37 38 38 39 38 38 38 38 38 38 38 38 39 41 42 42 43 43 42 42 42 42 42 42 42 42 43 43 43 43 43 44 44 44 44 44 44 44 44 44 44 45 45 44 45 45 45 45 44 44 45 45 44 44 44 44 45 45 45 44 44 44 44 44 44 44 44 44 44 45 45 46 46 47 47
42 41 41 40 39 38 38 38 39 39 39 38 38 38 37 36 36 36 36 36 35 35 35 36 38 40 41 42 42 42 41 41 41 40 41 41 41 41 41 41 42 42 42 43 43 43 43 44 44 44 44 44 44 44 44 44 44 44 44 44 44 44 44 44 44 44 44 44 44 44 44 44 44 44 44 44 44 44 44 44 44 45 45 46 46 46
39 39 38 37 36 37 37 38 38 38 39 38 37 36 36 36 35 35 35 35 34 33 33 34 35 36 38 40 41 42 41 40 40 40 40 40 40 40 40 41 41 41 42 42 42 42 43 43 43 44 44 44 44 44 44 44 44 44 44 44 44 44 44 44 44 44 44 44 44 44 44 43 43 43 43 43 43 43 43 44 44 44 45 45 45 46
36 36 35 35 35 35 36 36 37 37 36 36 36 36 36 36 36 35 34 34 34 34 34 33 33 34 35 38 40 42 41 40 40 40 40 40 40 40 40 41 41 41 41 41 42 42 42 43 43 43 43 44 44 44 44 44 44 44 44 44 44 44 44 43 43 43 43 43 43 43 43 43 43 42 42 42 42 43 43 43 44 44 44 44 45 45
34 34 34 34 35 35 35 35 35 35 34 33 34 35 36 37 36 36 35 35 34 34 34 34 33 32 31 35 38 40 39 39 39 40 40 41 41 41 40 40 40 40 40 41 41 41 42 42 42 42 42 42 43 43 43 43 43 43 43 43 43 43 43 42 42 42 42 42 42 42 42 42 42 42 42 42 42 42 43 43 43 44 44 44 44 44
32 33 33 34 34 35 35 35 35 34 33 32 31 31 32 34 35 35 35 36 35 34 34 33 32 31 30 31 33 35 34 35 35 36 38 39 40 40 40 39 39 39 39 39 40 40 40 40 41 41 41 41 41 42 42 42 43 43 43 43 43 42 42 41 41 41 41 42 42 42 42 42 42 42 42 42 42 42 42 43 43 43 44 44 44 44
31 31 32 32 33 34 34 35 35 35 34 33 32 30 28 29 30 31 32 33 34 35 34 32 31 30 30 30 30 31 33 34 33 33 35 35 36 38 39 39 39 39 39 39 39 39 39 40 40 40 40 40 41 41 42 43 44 44 43 43 42 42 41 41 41 41 41 41 41 41 41 41 41 41 41 41 41 41 42 42 43 43 43 43 43 44
30 30 31 31 32 33 33 34 35 35 35 35 35 33 30 27 27 27 27 28 31 33 33 32 31 30 30 30 30 31 33 35 36 37 38 39 38 39 40 40 40 40 40 39 39 39 39 39 39 39 39 40 40 41 43 44 44 44 43 43 42 42 41 41 41 41 41 41 40 40 40 40 40 40 40 40 41 41 41 41 42 42 43 43 43 43
30 30 30 31 32 32 33 33 34 35 36 36 36 35 33 30 28 27 26 26 28 30 30 31 30 30 30 30 30 31 32 32 34 35 38 40 42 43 42 41 42 43 41 39 39 39 39 39 39 39 39 39 40 41 43 43 44 43 43 43 42 42 42 41 41 41 40 40 39 39 39 39 39 40 40 40 40 40 40 41 41 41 42 42 43 43
30 30 31 31 32 33 33 34 35 36 36 34 33 32 32 31 30 29 27 27 28 28 29 30 31 31 30 30 30 31 32 31 31 32 33 35 36 38 37 36 37 38 37 37 37 38 39 39 39 39 39 40 40 41 42 42 43 43 43 43 43 43 42 42 41 40 39 39 39 39 39 39 39 40 40 40 40 40 40 40 40 41 41 41 42 42
30 31 31 32 32 32 33 34 35 35 33 30 29 28 29 30 30 30 29 29 29 30 30 30 30 30 30 31 31 31 32 32 31 31 31 31 32 32 32 31 31 31 31 32 32 34 37 38 39 39 39 39 40 41 42 42 42 43 43 43 43 43 42 41 40 40 39 39 39 39 39 39 39 39 40 40 40 40 40 40 40 40 40 41 41 42
30 30 30 30 30 30 30 29 28 27 27 28 29 30 30 31 31 30 29 29 30 31 31 29 28 28 29 30 31 32 33 32 32 31 30 30 30 30 30 30 30 30 30 30 30 31 35 36 36 36 37 38 39 39 40 41 42 42 42 42 42 42 42 41 40 40 39 39 39 39 39 39 39 39 39 39 39 39 40 40 40 40 40 41 41 41
30 30 28 28 28 28 27 26 26 26 27 30 30 31 31 31 30 29 27 27 28 30 30 28 27 26 26 30 32 33 32 31 30 29 29 29 30 30 30 29 29 29 30 30 30 30 34 34 33 33 33 35 35 37 39 40 41 41 42 42 42 42 42 41 41 40 40 40 39 39 39 39 39 39 39 39 39 40 40 40 40 40 41 41 41 41
30 29 27 27 27 27 27 27 26 27 28 30 30 30 29 28 29 28 28 28 28 29 28 27 26 26 25 31 35 35 32 30 30 29 29 29 29 30 30 29 29 29 30 30 30 30 31 31 31 31 32 34 36 39 40 40 40 41 41 41 42 42 41 41 41 40 40 40 40 39 39 39 39 39 39 39 39 40 40 40 40 41 41 41 41 41
29 28 27 26 26 26 27 28 28 28 29 30 30 30 30 29 29 30 30 30 30 29 28 28 27 26 25 27 31 34 35 31 30 30 30 29 30 31 30 30 30 30 30 30 30 30 30 31 31 31 32 35 37 39 40 40 41 41 41 41 42 42 41 41 41 41 40 40 39 39 39 39 39 39 39 39 39 40 40 40 41 41 41 41 41 41
29 28 27 26 25 26 26 26 27 27 28 28 29 30 30 30 31 31 31 30 30 29 29 29 28 27 26 26 26 29 37 32 30 30 30 29 30 30 31 31 31 30 30 30 31 31 31 31 31 31 33 36 39 39 40 41 41 41 42 42 42 42 42 42 41 41 40 39 39 39 38 38 39 39 39 39 39 39 40 40 40 40 41 41 41 41
29 28 27 26 26 26 26 26 26 26 27 28 29 29 29 30 31 31 30 30 30 29 29 29 29 28 27 27 27 29 34 32 30 30 29 29 30 30 30 31 31 30 30 30 30 31 31 31 33 35 37 39 40 41 42 42 42 43 43 43 42 42 42 41 41 40 39 39 38 38 38 38 39 39 39 39 39 39 39 39 40 40 40 41 41 41
28 27 26 26 26 26 26 27 28 29 29 30 30 30 29 30 30 30 30 30 30 30 30 29 29 28 28 28 29 30 31 31 31 30 29 29 29 30 30 30 29 29 28 29 29 30 30 30 31 33 36 38 39 40 41 42 42 42 42 42 42 41 40 40 39 39 38 38 38 38 38 38 39 39 39 39 39 39 39 39 40 40 40 41 40 40
27 27 28 28 28 27 27 28 30 31 32 32 31 30 30 29 29 29 29 30 30 30 30 29 29 29 30 30 30 30 31 31 30 30 30 29 29 29 29 29 28 27 27 28 28 28 28 27 26 28 31 35 37 38 39 39 39 39 39 39 39 39 39 39 39 38 38 38 38 38 38 38 38 38 38 38 38 39 39 39 39 40 40 40 39 39
28 27 29 29 29 29 30 30 31 32 33 32 31 30 30 29 29 29 30 30 30 30 30 30 30 30 31 31 31 32 32 31 31 30 30 29 29 29 29 28 28 27 26 26 26 26 25 25 25 27 31 35 36 37 37 38 38 38 39 39 39 39 39 39 39 38 38 38 37 37 37 37 37 37 37 37 38 38 39 39 39 39 39 39 39 38
29 29 30 30 31 31 31 31 31 32 33 32 32 31 30 30 30 30 30 30 30 30 31 31 32 32 33 32 32 32 33 32 32 31 30 30 29 28 28 27 26 25 25 24 24 24 25 25 25 26 30 34 35 36 37 37 37 38 38 39 39 39 39 39 38 38 37 37 36 36 36 36 36 36 36 37 37 38 38 38 38 38 38 38 38 38
31 31 32 32 33 33 33 33 33 33 33 33 33 33 32 32 32 32 32 32 32 32 33 33 32 32 32 33 32 32 32 32 32 31 30 29 28 26 26 25 24 24 24 24 24 24 24 25 25 26 28 31 34 35 36 36 37 37 37 38 38 38 38 37 37 37 36 36 36 35 36 36 36 36 36 37 37 37 38 38 38 38 38 38 38 38
34 34 34 35 35 35 35 35 35 35 35 35 35 35 35 35 35 35 35 34 34 33 32 32 31 30 30 31 30 30 30 30 30 30 28 26 25 24 25 24 23 22 22 23 24 24 24 24 25 25 26 28 31 34 35 35 35 36 36 36 36 36 36 35 35 35 35 35 35 35 35 35 35 36 36 37 37 37 37 37 37 37 38 38 38 39
34 34 34 34 35 35 35 35 35 35 35 35 35 35 34 34 34 33 32 32 31 31 30 29 28 28 28 27 26 26 26 27 27 26 25 24 22 22 23 22 22 21 22 23 24 24 24 24 24 24 24 26 29 32 34 35 35 35 35 35 34 34 34 34 34 34 34 35 35 35 35 35 35 36 36 36 37 37 37 37 37 37 37 38 38 38
33 33 33 33 33 33 33 33 33 33 33 33 34 34 34 33 32 31 30 30 30 29 28 27 26 26 26 26 25 25 26 26 25 24 24 23 21 21 21 22 22 22 22 23 24 24 25 25 24 24 24 24 26 30 33 34 34 33 33 33 33 33 33 33 34 34 34 34 34 35 35 35 35 36 36 36 36 36 36 36 37 37 37 37 36 36
33 34 34 33 33 33 33 33 33 33 32 33 32 32 33 32 31 30 29 30 29 28 27 27 26 26 26 25 25 25 25 25 24 24 24 23 21 21 22 23 23 23 23 23 24 25 26 26 25 24 24 25 26 29 31 32 32 32 32 32 32 32 33 33 33 33 33 34 34 34 35 35 35 35 35 35 35 36 36 36 36 36 36 35 34 33
35 35 35 35 35 35 35 35 35 35 34 33 33 33 34 32 31 30 29 30 29 28 27 27 27 26 26 25 25 25 24 23 24 25 25 24 22 22 24 24 23 23 23 23 24 24 24 25 25 24 24 27 27 27 28 30 30 30 31 31 32 32 32 32 32 33 33 33 34 34 34 35 35 35 35 35 35 35 35 35 35 35 34 33 32 32
33 34 34 35 35 36 35 35 36 36 35 34 34 34 35 32 31 30 30 30 29 28 27 27 27 26 26 25 24 23 22 22 24 26 26 24 23 23 24 23 23 24 24 24 23 23 23 24 25 25 26 27 27 26 26 26 27 27 28 29 30 31 31 32 32 32 33 33 33 34 34 34 34 34 35 35 35 35 35 35 35 33 31 31 30 30
30 30 30 31 31 32 32 32 32 33 34 33 34 33 33 31 31 30 30 30 29 28 27 27 26 26 26 25 23 22 22 22 25 27 26 25 24 23 23 23 24 25 25 24 23 23 22 23 24 25 26 26 25 25 25 26 26 26 26 27 28 29 31 31 32 32 32 33 33 33 33 34 34 34 34 34 35 35 35 35 34 33 30 30 30 30
29 29 29 29 29 29 29 29 29 29 30 31 31 31 31 31 30 30 30 30 29 28 27 26 26 26 26 25 24 23 23 23 26 29 27 26 25 25 24 24 24 25 26 25 24 23 23 23 23 24 25 24 24 24 25 26 26 25 25 26 26 27 30 30 31 31 31 32 33 33 33 33 33 34 34 34 34 34 34 34 34 33 30 30 29 30
29 29 29 29 28 28 28 28 28 28 28 28 29 29 30 30 30 30 29 29 29 28 27 26 26 26 25 25 25 24 25 24 27 30 30 26 26 25 25 25 25 25 25 25 25 24 23 23 23 24 24 24 24 24 25 26 26 26 26 26 26 26 28 29 30 30 30 31 31 32 32 32 33 33 33 33 33 33 33 34 34 33 32 30 30 30
29 29 29 28 28 27 27 27 27 27 28 28 28 28 28 28 29 29 29 29 29 28 27 27 26 26 25 25 25 25 25 25 28 31 31 27 26 25 25 25 24 24 24 24 24 24 24 24 24 24 24 24 24 24 24 25 26 26 25 26 26 26 26 27 28 28 28 29 29 29 30 30 31 32 32 32 32 33 33 33 34 34 33 32 31 31
28 28 28 27 26 26 26 26 27 27 28 27 27 27 27 27 27 27 27 28 28 28 28 28 27 26 26 25 25 25 25 25 28 30 30 28 26 26 25 25 25 25 24 25 25 24 24 24 24 24 24 24 24 24 24 24 25 26 26 26 26 26 26 26 27 27 27 27 27 27 27 28 28 29 30 31 32 32 33 33 34 34 34 34 34 33
28 27 27 26 26 26 26 26 27 27 27 26 26 26 26 26 26 26 27 27 28 28 29 29 28 28 27 26 26 26 26 26 27 29 30 28 27 26 26 26 26 26 26 26 26 25 25 25 25 25 25 25 24 24 24 24 25 25 26 26 26 26 27 27 27 27 26 26 26 26 26 26 27 28 29 30 32 32 33 33 34 34 35 35 35 34
27 26 26 25 25 26 26 26 26 25 25 24 25 25 25 26 26 26 27 27 28 28 28 29 29 29 29 28 27 26 26 27 27 28 29 28 28 27 27 27 27 27 27 26 26 26 26 26 25 25 25 24 24 24 24 25 25 25 26 26 26 26 27 27 28 27 27 27 27 27 27 27 27 28 29 31 32 32 33 33 34 34 35 35 35 35
26 26 26 26 25 25 25 24 24 25 24 24 24 25 25 26 26 26 27 27 27 28 28 28 28 28 29 29 29 28 28 28 28 28 28 29 29 29 28 28 28 29 28 28 28 27 27 26 26 25 24 24 24 25 25 25 25 26 26 26 27 27 27 27 27 27 27 27 27 28 28 28 28 28 29 30 30 30 30 31 32 33 34 35 35 37
26 26 26 26 25 25 24 24 24 24 24 24 25 25 26 26 26 26 26 26 27 27 27 27 28 28 29 30 30 30 30 30 30 30 30 30 30 30 29 29 29 29 29 29 29 29 28 27 26 26 25 25 25 25 25 26 26 26 26 27 27 27 27 27 27 27 27 27 28 29 29 29 29 29 29 29 30 30 30 30 31 32 32 34 35 36
26 26 26 26 25 24 24 24 24 24 24 25 26 26 27 27 27 27 26 27 27 27 27 27 28 28 29 29 30 30 31 31 31 31 30 30 30 30 30 29 29 29 30 30 30 30 29 29 28 27 27 26 26 26 26 26 26 27 28 27 27 27 27 27 27 27 27 27 28 28 28 28 29 29 29 29 30 30 30 30 30 31 32 32 34 35
26 25 25 25 25 25 25 25 26 26 26 27 27 27 27 27 27 27 27 27 27 27 27 28 28 28 28 28 28 28 29 30 30 30 30 30 30 30 30 30 30 30 30 30 30 30 30 29 28 28 27 27 26 26 27 27 27 28 29 28 27 27 28 28 28 28 28 28 28 29 29 29 29 29 29 30 30 30 30 30 30 31 31 32 33 34
26 25 25 25 25 25 26 27 28 28 28 27 26 26 26 26 26 26 26 26 26 26 26 26 27 27 27 27 27 26 27 28 29 30 30 30 30 30 30 30 30 30 30 30 30 30 29 29 29 28 28 27 27 27 26 27 27 28 28 28 28 28 28 28 28 28 27 28 28 29 30 29 29 29 30 30 30 30 31 31 31 32 32 33 34 35
25 25 26 26 26 27 27 28 27 27 26 26 26 26 26 26 26 26 26 26 26 26 27 27 27 27 27 27 27 28 27 27 28 28 29 29 28 28 29 29 30 30 29 29 28 28 27 28 29 28 28 28 28 28 27 27 27 28 28 28 28 28 27 27 27 27 28 28 29 29 30 30 30 30 30 30 30 30 30 31 32 33 33 34 34 35
26 26 26 27 27 27 27 26 26 26 26 26 26 26 26 26 27 27 27 26 26 27 27 27 27 27 27 27 27 27 26 26 26 25 26 28 29 28 28 28 29 29 29 29 28 27 27 28 28 28 28 28 28 28 28 28 27 27 27 28 28 28 27 28 28 28 29 29 29 30 30 30 30 30 30 30 30 30 30 30 31 31 33 34 34 35
26 27 27 27 27 27 27 27 26 26 26 27 27 27 27 27 27 27 27 26 26 26 27 27 27 27 27 26 26 26 26 26 26 26 26 28 30 30 29 29 29 29 29 29 28 28 27 27 27 27 28 28 28 28 28 28 28 28 28 28 29 28 28 29 29 29 29 29 29 29 30 30 30 30 30 30 30 30 30 30 30 31 32 34 34 34
27 28 28 27 27 27 27 27 27 27 27 27 27 27 27 27 27 27 28 27 27 27 27 28 27 27 26 26 26 26 25 25 25 26 26 26 27 28 29 29 29 29 29 28 28 28 28 27 27 27 28 28 28 28 28 28 28 28 28 28 28 28 28 29 29 29 29 29 29 29 29 29 30 30 30 30 30 30 30 31 32 33 34 35 34 34
28 27 27 27 27 27 27 27 27 27 27 27 27 27 27 27 27 27 27 28 28 27 28 28 27 26 26 26 26 26 25 25 25 26 26 26 26 27 27 28 28 29 29 29 28 28 28 28 28 28 28 27 27 27 27 28 28 28 28 28 28 28 28 28 28 29 29 29 29 29 29 29 30 30 30 30 30 31 32 33 34 35 35 35 34 33
27 27 27 27 27 27 27 27 27 27 26 26 26 26 26 26 26 26 26 27 27 27 27 27 26 26 26 26 26 26 26 26 26 26 26 26 26 27 27 27 28 28 29 29 29 29 29 29 29 29 29 28 27 27 27 27 27 27 27 28 28 28 28 28 28 29 29 29 29 29 29 30 30 30 30 31 32 33 34 34 34 34 33 32 31 30
26 26 26 26 26 26 26 26 26 26 25 25 25 25 25 26 27 27 27 27 27 27 27 27 26 26 26 26 26 26 26 26 26 26 26 26 26 26 27 26 27 27 28 28 29 29 29 30 30 30 30 29 28 28 27 27 28 28 28 28 28 28 28 28 29 29 29 29 30 30 30 31 32 32 33 33 33 33 33 32 31 31 30 30 30 29
26 26 26 26 26 25 25 25 25 25 25 25 26 26 26 27 27 27 28 28 28 28 28 27 27 27 26 26 26 26 26 26 26 26 26 26 26 26 26 26 26 27 27 27 28 28 28 29 30 30 31 31 30 29 28 28 28 28 28 28 28 28 29 29 29 29 29 30 30 32 33 34 35 35 35 34 32 31 30 30 29 29 29 29 29 29
26 26 26 26 25 25 25 25 26 26 26 26 26 27 27 27 27 27 27 27 26 26 26 26 26 26 26 26 26 26 26 26 26 26 26 26 26 26 26 26 26 26 26 26 27 27 27 26 27 28 29 31 32 31 30 29 29 29 28 28 28 29 29 29 29 30 30 31 33 34 35 35 35 34 33 32 30 30 29 28 28 28 28 28 28 28